[[{"header":{"parameterUnit":"m.s-1","parameterCategory":1,"la1":30.2991,"la2":30.254,"lo1":-89.0895,"lo2":-89.0444,"dy":0.0017,"dx":0.0017,"nx":28,"ny":28,"refTime":"2023-09-01T21:00:00:Z","depth":0,"parameterNumber":2,"parameterNumberName":"U-component_of_WINDS"},"data":[0,0,0,0,0,0,0,0,0,0,0,0,0,0,0,0,0,0,0,0,0,0,0,0,0,0,0,0,0,0,0,0,0,0,0,0,0,0,0,0,0,0,0,0,0,0,0,0,0,0,0,0,0,0,0,0,0,0,1.3493,1.3493,0,1.3453,1.3453,1.3453,1.3332,1.3329,1.3326,1.3324,1.3286,1.3287,1.3289,0,0,0,0,0,0,0,0,0,0,0,0,0,1.3468,1.3469,1.3493,1.3493,1.3492,1.3454,1.3453,1.3452,1.3332,1.3329,1.3326,1.3323,1.3285,1.3287,1.3289,0,0,0,0,0,0,0,0,0,0,0,0,0,1.3459,1.3469,1.3493,1.3427,1.3421,1.3454,1.3453,1.3452,1.3333,1.3329,1.3325,1.3321,1.3285,1.3287,1.3289,1.3383,0,0,1.3296,1.3297,0,0,0,0,0,0,0,0,1.3459,1.346,1.3438,1.3432,1.3425,1.3393,1.343,1.3429,1.3334,1.3367,1.3324,1.3319,1.3325,1.3324,1.3325,1.3381,1.3379,1.3296,1.3297,1.3298,1.3299,0,0,0,0,0,0,0,1.346,1.3461,1.3477,1.3437,1.343,1.3401,1.3395,1.3429,1.3369,1.3363,1.3354,1.3351,1.3321,1.3323,1.3323,1.3379,1.3296,1.3298,1.3299,1.33,1.3512,1.3516,0,0,0,0,0,0,1.347,1.3462,1.3479,1.3476,1.3433,1.3405,1.3398,1.3408,1.3368,1.3358,1.3355,1.3346,1.3321,1.3321,1.3321,1.343,1.3298,1.33,1.3301,1.3507,1.3513,1.3517,0,0,0,0,0,0,1.347,1.3472,1.348,1.3467,1.3465,1.3409,1.3421,1.3409,1.3411,1.3361,1.335,1.3368,1.3318,1.3318,1.3369,1.3427,1.3301,1.3303,1.3502,1.3509,1.3515,1.3647,0,0,0,0,0,0,1.3469,1.3473,1.3507,1.3468,1.3467,1.3528,1.3424,1.3411,1.3415,1.3403,1.3371,1.3362,1.3315,1.3366,1.3371,1.3428,1.3305,1.3497,1.3505,1.3513,1.3637,1.3657,1.3674,0,0,0,0,0,1.3469,1.3546,1.3509,1.3512,1.3508,1.3531,1.353,1.3474,1.342,1.3455,1.3423,1.3363,1.342,1.3372,1.3377,1.3435,1.3493,1.3503,1.3512,1.3629,1.3653,1.3674,0,0,0,0,0,0,1.3593,1.3539,1.3498,1.3565,1.3554,1.3511,1.3552,1.3501,1.3505,1.3494,1.3424,1.3418,1.3479,1.3462,1.341,1.3525,1.3446,1.3458,1.3534,1.3556,1.3575,1.3578,1.3307,0,0,0,0,0,1.3628,1.365,1.3602,1.3666,1.3662,1.3609,1.3617,1.3574,1.356,1.3555,1.3526,1.3516,1.3531,1.3543,1.3554,1.3634,1.3626,1.3677,1.3695,1.3711,1.3721,1.3764,1.3787,1.3549,1.3549,1.3549,0,0,1.37,1.3674,1.3692,1.369,1.3676,1.3702,1.3605,1.3636,1.3655,1.3559,1.3605,1.3585,1.3568,1.3635,1.3663,1.3622,1.3785,1.3723,1.3736,1.3738,1.3777,1.3799,1.3819,1.3556,1.3554,1.3553,0,0,1.3846,1.3828,1.3879,1.3868,1.3848,1.3813,1.3825,1.3791,1.3773,1.3818,1.3748,1.377,1.3797,1.3789,1.3788,1.3934,1.3879,1.394,1.4037,1.408,1.4098,1.4115,1.4168,1.4188,1.395,1.3951,1.3951,0,1.3939,1.3974,1.3912,1.3949,1.3951,1.3865,1.3918,1.391,1.3896,1.39,1.3855,1.3889,1.3871,1.3936,1.3972,1.3973,1.3987,1.3943,1.41,1.4116,1.413,1.4181,1.4201,1.3958,1.3957,1.3956,1.3956,0,1.409,1.4116,1.4161,1.4149,1.4156,1.4201,1.4147,1.4162,1.412,1.4089,1.4138,1.4114,1.412,1.4132,1.4091,1.4191,1.4167,1.4113,1.4033,1.4162,1.4208,1.4226,1.3969,1.3966,1.3964,1.3962,0,0,1.4311,1.4267,1.4284,1.4279,1.4252,1.4272,1.4313,1.4319,1.4334,1.4327,1.4362,1.4388,1.4338,1.4337,1.4295,1.4333,1.4452,1.4273,1.4272,1.4308,1.4563,1.4605,1.4628,1.4415,1.4419,1.4421,1.4565,0,1.445,1.4518,1.4465,1.4543,1.4567,1.4488,1.4524,1.4513,1.4486,1.4504,1.4474,1.4495,1.4426,1.4426,1.446,1.443,1.4502,1.4419,1.4448,1.445,1.4455,1.4652,1.4695,1.4832,1.4582,1.4585,1.4587,0,1.4621,1.4623,1.4704,1.4674,1.4682,1.4716,1.4718,1.4735,1.4722,1.47,1.4701,1.4649,1.4689,1.4611,1.4667,1.4611,1.462,1.4608,1.4612,1.4613,1.4527,1.4659,1.4873,1.4895,1.4615,1.4612,1.461,0,1.4776,1.4799,1.485,1.4848,1.4814,1.484,1.4828,1.481,1.4817,1.482,1.4824,1.4832,1.4836,1.4843,1.4796,1.4743,1.4858,1.4775,1.4842,1.4844,1.487,1.4869,1.509,1.4875,1.4875,1.4874,1.4874,0,1.4937,1.499,1.492,1.4952,1.5009,1.4949,1.5008,1.4987,1.4972,1.4999,1.4931,1.4959,1.4893,1.4915,1.4878,1.493,1.4933,1.4917,1.4907,1.4923,1.4926,1.4929,1.4918,1.488,1.4879,1.4878,1.4877,0,1.512,1.5075,1.5126,1.5091,1.5083,1.5127,1.5097,1.5126,1.5095,1.5131,1.5136,1.5089,1.511,1.5064,1.5078,1.5054,1.5129,1.5103,1.5134,1.5126,1.5196,1.5191,1.5427,1.5456,1.5222,1.5225,1.5227,0,1.5226,1.5264,1.5234,1.5247,1.5239,1.5261,1.5269,1.5211,1.5222,1.5211,1.5242,1.5258,1.5267,1.5306,1.5274,1.5285,1.526,1.5342,1.5261,1.5278,1.5263,1.5261,1.5265,1.5359,1.5362,1.5364,1.5366,0,1.5419,1.5395,1.5409,1.5416,1.5427,1.543,1.5428,1.5443,1.5382,1.5398,1.542,1.5427,1.5443,1.5461,1.5465,1.5453,1.5401,1.5392,1.5408,1.5426,1.5442,1.5436,1.518,1.5387,1.5385,1.5383,1.5382,1.5381,1.5567,1.5598,1.5582,1.5601,1.5593,1.5593,1.5619,1.5593,1.5609,1.5618,1.5583,1.5613,1.56,1.5601,1.5595,1.5618,1.5581,1.5604,1.561,1.5617,1.5629,1.5439,1.5619,1.5618,1.5617,1.5617,1.5616,0,1.5757,1.5744,1.5761,1.5761,1.5776,1.5725,1.572,1.5737,1.5764,1.5756,1.5767,1.5793,1.5811,1.578,1.5793,1.5817,1.5794,1.5823,1.582,1.5819,1.5661,1.5646,1.5842,1.5842,1.5842,1.5842,1.5842,1.5842,1.5858,1.591,1.5885,1.5933,1.5919,1.5947,1.595,1.595,1.5944,1.5976,1.599,1.597,1.5954,1.5965,1.5979,1.597,1.5978,1.6016,1.5999,1.5852,1.583,1.5809,1.5795,1.6018,1.6019,1.6155,1.6156,1.6157]},{"header":{"parameterUnit":"m.s-1","parameterCategory":1,"la1":30.2991,"la2":30.254,"lo1":-89.0895,"lo2":-89.0444,"dy":0.0017,"dx":0.0017,"nx":28,"ny":28,"refTime":"2023-09-01T21:00:00:Z","depth":0,"parameterNumber":3,"parameterNumberName":"V-component_of_WINDS"},"data":[0,0,0,0,0,0,0,0,0,0,0,0,0,0,0,0,0,0,0,0,0,0,0,0,0,0,0,0,0,0,0,0,0,0,0,0,0,0,0,0,0,0,0,0,0,0,0,0,0,0,0,0,0,0,0,0,0,0,0.0031,0.0035,0,0.0382,0.0386,0.039,0.0441,0.0438,0.0435,0.0432,0.0805,0.0818,0.083,0,0,0,0,0,0,0,0,0,0,0,0,0,-0.0583,-0.0572,0.0031,0.0035,0.004,0.0382,0.0387,0.0391,0.0442,0.0438,0.0434,0.043,0.0801,0.0816,0.0832,0,0,0,0,0,0,0,0,0,0,0,0,0,-0.0282,-0.0568,0.003,0.0106,0.0116,0.0381,0.0387,0.0393,0.0443,0.0438,0.0433,0.0428,0.0796,0.0815,0.0834,0.1052,0,0,0.0893,0.0902,0,0,0,0,0,0,0,0,-0.0299,-0.0259,0.009,0.0101,0.0113,0.0363,0.0307,0.0614,0.0444,0.0319,0.0432,0.0426,0.0663,0.0693,0.077,0.1069,0.1085,0.0895,0.0907,0.0915,0.0921,0,0,0,0,0,0,0,-0.032,-0.0274,0.017,0.0095,0.0109,0.0127,0.0164,0.0366,0.0515,0.033,0.0334,0.0374,0.0668,0.0751,0.0779,0.1091,0.0894,0.0912,0.0924,0.0931,0.1591,0.1597,0,0,0,0,0,0,-0.0357,-0.0292,0.0159,0.0181,-0.011,0.0142,0.0183,0.0288,0.0512,0.0542,0.0378,0.0375,0.072,0.0756,0.0792,0.1066,0.0915,0.0933,0.0944,0.1585,0.1593,0.1599,0,0,0,0,0,0,-0.037,-0.0317,0.0145,-0.0054,0.0006,0.0157,0.0274,0.0297,0.038,0.0549,0.0577,0.0435,0.0718,0.0765,0.0987,0.1079,0.0942,0.096,0.1579,0.1588,0.1596,0.1612,0,0,0,0,0,0,-0.0388,-0.0322,-0.0241,-0.0053,0.0016,0.033,0.028,0.0308,0.0412,0.0412,0.0609,0.0638,0.0717,0.0958,0.1006,0.1104,0.0975,0.1571,0.1583,0.1593,0.1604,0.162,0.1634,0,0,0,0,0,-0.041,-0.0248,-0.0237,-0.0183,0.012,0.0335,0.0375,0.046,0.0419,0.0505,0.0613,0.0631,0.106,0.098,0.1035,0.114,0.1566,0.1579,0.1592,0.1597,0.1617,0.1634,0,0,0,0,0,0,-0.0424,-0.0222,-0.0207,0.0019,0.0159,0.0343,0.0453,0.0478,0.0636,0.0629,0.0732,0.0776,0.0994,0.1089,0.0996,0.1365,0.131,0.1335,0.1295,0.1316,0.133,0.1305,0.0991,0,0,0,0,0,-0.0402,-0.0249,-0.0079,0.0105,0.0174,0.0301,0.0398,0.045,0.0602,0.0662,0.0787,0.0937,0.1106,0.1215,0.138,0.1616,0.1663,0.1716,0.1731,0.1743,0.1765,0.1901,0.1928,0.1642,0.1642,0.1642,0,0,-0.0352,-0.0223,-0.0132,0.0105,0.022,0.0381,0.0351,0.0522,0.0644,0.069,0.0907,0.1004,0.1178,0.1409,0.1517,0.1495,0.1853,0.1759,0.1767,0.1784,0.1918,0.1945,0.1969,0.1651,0.1649,0.1648,0,0,-0.0179,-0.0069,0.0098,0.0213,0.0385,0.0469,0.0508,0.0689,0.0754,0.0972,0.1011,0.116,0.1447,0.157,0.1671,0.189,0.1915,0.1941,0.2022,0.2154,0.2177,0.2197,0.228,0.2308,0.1961,0.1962,0.1962,0,-0.0138,0.0102,0.0182,0.0352,0.0458,0.0501,0.0674,0.0783,0.1002,0.1076,0.1046,0.1409,0.1529,0.1791,0.1845,0.1923,0.1976,0.1921,0.2166,0.2188,0.2208,0.2289,0.2319,0.1964,0.1964,0.1963,0.1963,0,0.0146,0.0312,0.0427,0.0633,0.0751,0.0922,0.1032,0.1143,0.1185,0.1273,0.1498,0.1642,0.1838,0.1904,0.1948,0.2174,0.2155,0.2144,0.2093,0.2236,0.2314,0.2345,0.1967,0.1966,0.1966,0.1965,0,0,0.0324,0.057,0.0612,0.0707,0.09,0.1033,0.1207,0.1394,0.1489,0.1639,0.1791,0.2033,0.2024,0.2138,0.2197,0.2311,0.2482,0.2288,0.2294,0.2323,0.2745,0.2755,0.2789,0.2497,0.2503,0.2508,0.2732,0,0.0523,0.083,0.0908,0.1172,0.1329,0.1373,0.1525,0.1663,0.175,0.1899,0.1997,0.2168,0.2141,0.2211,0.2326,0.2436,0.2569,0.2421,0.2646,0.2653,0.2605,0.2829,0.2841,0.3046,0.2762,0.2768,0.2771,0,0.0797,0.0949,0.1227,0.1402,0.1471,0.1606,0.1785,0.1925,0.2084,0.2139,0.2266,0.2313,0.2501,0.2435,0.2699,0.2596,0.2693,0.2761,0.2771,0.28,0.2724,0.2869,0.3112,0.3145,0.2819,0.2815,0.2812,0,0.0904,0.1178,0.1381,0.1461,0.1668,0.1763,0.1854,0.2007,0.2115,0.2273,0.2346,0.2524,0.2624,0.2763,0.286,0.2802,0.3117,0.3058,0.3174,0.3171,0.3242,0.3237,0.351,0.3295,0.3295,0.3294,0.3294,0,0.1122,0.1292,0.1432,0.1558,0.1751,0.184,0.203,0.2124,0.2259,0.2408,0.2456,0.2595,0.2711,0.2867,0.2944,0.3153,0.3197,0.3251,0.327,0.325,0.3243,0.3318,0.3308,0.3303,0.3301,0.3299,0.3298,0,0.1276,0.1376,0.1601,0.1777,0.1826,0.1961,0.2115,0.2241,0.2327,0.2515,0.2564,0.2702,0.2889,0.2997,0.3232,0.3284,0.3518,0.3528,0.3464,0.3473,0.3584,0.3574,0.3918,0.397,0.3716,0.3718,0.372,0,0.1411,0.1542,0.1732,0.1832,0.1924,0.2086,0.2196,0.2289,0.2402,0.2593,0.2697,0.2885,0.3041,0.3337,0.3462,0.3643,0.3662,0.377,0.369,0.3666,0.367,0.3663,0.3679,0.3785,0.3787,0.3789,0.3791,0,0.1641,0.1684,0.1838,0.201,0.2139,0.2281,0.2422,0.2502,0.262,0.2745,0.2934,0.3054,0.3293,0.3482,0.3673,0.3773,0.3805,0.3814,0.3851,0.3834,0.3793,0.3822,0.3506,0.3807,0.3805,0.3804,0.3803,0.3803,0.1794,0.1914,0.2066,0.2237,0.2352,0.2482,0.261,0.2711,0.2869,0.3068,0.3114,0.3314,0.3472,0.3732,0.3836,0.3997,0.3979,0.4031,0.4046,0.4059,0.4065,0.3762,0.4031,0.4031,0.4031,0.4031,0.403,0,0.2031,0.213,0.2286,0.248,0.2616,0.2626,0.2783,0.2898,0.3071,0.3213,0.3365,0.3584,0.3766,0.3904,0.4092,0.4195,0.4214,0.4242,0.4238,0.4261,0.4068,0.4019,0.4223,0.4223,0.4223,0.4223,0.4223,0.4223,0.217,0.2375,0.2436,0.2699,0.2799,0.2992,0.3081,0.3203,0.3318,0.3558,0.3709,0.3795,0.3938,0.4136,0.4306,0.4342,0.4412,0.4438,0.4477,0.4295,0.4275,0.4255,0.421,0.4451,0.4451,0.4659,0.4661,0.4662]}]]